Weather observations for the past three days for
Eureka Airport ASOS
Metric (Imperial)
Date Time (pdt) Wind (kph) Vis. (km) Weather Sky Cond. Temperature (ºC) Relative Humidity Wind Chill (°C) Heat Index (°C) Pressure Precipitation (cm)
Air Dwpt 6 hour altimeter (cm) sea level (mb) 1 hr 3 hr 6 hr
Max. Min.
03 10:53 SE 22 G 37 0.00 NULL NULL 20 -11.1 20 2.2 11% 76.2 1009.5
03 09:53 S 9 0.00 NULL NULL 17.8 -8.9 15% 76.23 1010.0
03 08:53 Calm 0.00 NULL NULL 16.1 -6.1 21% 76.23 1010.1
03 07:53 W 7 0.00 NULL NULL 11.7 -5 31% 76.25 1011.4
03 06:53 Calm 0.00 NULL NULL 5.6 -5.6 45% 76.28 1011.6
03 05:53 Calm 0.00 NULL NULL 2.2 -6.1 55% 76.25 1011.9
03 04:53 SW 7 0.00 NULL NULL 3.3 -6.1 12.8 3.3 51% 2 76.25 1012.0
03 03:53 Calm 0.00 NULL NULL 3.9 -5.6 50% 76.28 1012.1
03 02:53 Calm 0.00 NULL NULL 6.1 -6.1 42% 76.3 1011.5
03 01:53 Calm 0.00 NULL NULL 8.9 -6.1 34% 76.3 1011.3
03 00:53 S 9 0.00 NULL NULL 7.8 -6.7 35% 6 76.33 1011.9
02 23:53 S 17 0.00 NULL NULL 11.7 -8.9 23% 76.33 1011.3
02 22:53 SE 13 0.00 NULL NULL 10 -8.9 20 9.4 26% 8 76.33 1011.8
02 21:53 S 13 0.00 NULL NULL 11.7 -8.3 24% 76.33 1011.6
02 20:53 S 6 0.00 NULL NULL 13.3 -8.9 21% 76.3 1011.4
02 19:53 SE 11 0.00 NULL NULL 12.8 -6.7 25% 76.25 1011.4
02 18:53 Calm 0.00 NULL NULL 18.3 -8.9 15% 76.23 1010.7
02 17:53 N 9 0.00 NULL NULL 20 -9.4 13% 76.25 1011.7
02 16:53 E 7 0.00 NULL NULL 18.9 -10 20.6 17.2 13% 76.28 1012.2
02 15:53 S 17 0.00 NULL NULL 19.4 -10 13% 76.3 1012.2
02 14:53 SW 19 0.00 NULL NULL 20.6 -9.4 12% 76.35 1012.0
02 13:53 S 13 G 26 0.00 NULL NULL 19.4 -10.6 12% 76.4 1012.5
02 12:53 Vrbl 7 0.00 NULL NULL 18.3 -11.1 13% 76.45 1013.1
02 11:53 SE 22 0.00 NULL NULL 18.3 -11.7 12% 76.53 1014.3
02 10:53 SE 28 0.00 NULL NULL 17.8 -10 17.8 1.1 14% 76.56 1015.0
02 09:53 S 26 0.00 NULL NULL 17.2 -10 15% 76.58 1016.0
02 08:53 E 7 0.00 NULL NULL 13.9 -9.4 19% 76.58 1016.1
02 07:53 W 9 0.00 NULL NULL 11.1 -4.4 34% 76.58 1016.3
02 06:53 SE 7 0.00 NULL NULL 8.3 -6.7 34% 7 76.56 1015.5
02 05:53 Calm 0.00 NULL NULL 1.7 -7.8 50% 76.53 1016.0
02 04:53 S 13 0.00 NULL NULL 2.8 -7.8 12.2 2.8 46% -0 76.53 1015.7
02 03:53 S 9 0.00 NULL NULL 5 -8.3 38% 3 76.56 1015.8
02 02:53 SE 17 0.00 NULL NULL 7.8 -8.9 30% 5 76.56 1015.3
02 01:53 Vrbl 7 0.00 NULL NULL 10.6 -9.4 24% 76.56 1015.0
02 00:53 Vrbl 7 0.00 NULL NULL 11.7 -10.6 20% 76.58 1015.1
01 23:53 Vrbl 7 0.00 NULL NULL 10 -8.9 26% 9 76.56 1015.2
01 22:53 S 7 0.00 NULL NULL 10 -9.4 18.9 5 25% 9 76.56 1015.5
01 21:53 S 13 0.00 NULL NULL 6.1 -8.3 35% 4 76.56 1016.3
01 20:53 SE 7 0.00 NULL NULL 9.4 -8.3 28% 9 76.5 1015.7
01 19:53 Calm 0.00 NULL NULL 11.1 -7.8 26% 76.43 1015.1
01 18:53 NE 9 0.00 NULL NULL 17.2 -10.6 14% 76.4 1014.2
01 17:53 NW 11 0.00 NULL NULL 18.3 -10 14% 76.4 1014.4
01 16:53 NE 6 0.00 NULL NULL 17.8 -10 18.9 12.8 14% 76.43 1015.1
01 15:53 N 13 0.00 NULL NULL 17.8 -9.4 15% 76.45 1015.1
01 14:53 NW 9 0.00 NULL NULL 17.2 -8.9 16% 76.53 1016.2
01 13:53 Vrbl 9 0.00 NULL NULL 16.7 -8.9 17% 76.56 1016.7
01 12:53 Vrbl 6 0.00 NULL NULL 15.6 -7.2 20% 76.58 1017.0
01 11:53 Vrbl 11 G 43 0.00 NULL NULL 15.6 -6.7 21% 76.63 1017.6
01 10:53 NE 9 0.00 NULL NULL 13.9 -5.6 13.9 -0.6 26% 76.63 1017.5
01 09:53 N 9 0.00 NULL NULL 13.3 -4.4 29% 76.63 1017.8
01 08:53 Calm 0.00 NULL NULL 10.6 -3.3 38% 76.66 1017.9
01 07:53 NE 9 0.00 NULL NULL 7.8 -3.3 46% 6 76.63 1018.0
01 06:53 Calm 0.00 NULL NULL 3.3 -2.8 65% 76.61 1017.6
01 05:53 S 13 0.00 NULL NULL 1.1 -3.9 70% -2 76.53 1016.5
01 04:53 S 9 0.00 NULL NULL 0 -3.9 5 -0.6 75% -3 76.53 1016.9
01 03:53 S 11 0.00 NULL NULL 1.1 -3.9 70% -2 76.48 1016.0
01 02:53 S 9 0.00 NULL NULL 1.1 -4.4 67% -1 76.45 1015.4
01 01:53 S 6 0.00 NULL NULL 1.7 -3.9 67% 76.48 1015.7
01 00:53 S 7 0.00 NULL NULL 2.8 -3.9 62% 1 76.48 1015.8
30 23:53 S 11 0.00 NULL NULL 3.3 -3.9 60% 1 76.45 1015.3
30 22:53 Calm 0.00 NULL NULL 5 -4.4 17.2 3.9 51% 76.43 1015.1
30 21:53 Calm 0.00 NULL NULL 5 -4.4 51% 76.4 1015.3
30 20:53 NE 9 0.00 NULL NULL 7.8 -4.4 42% 6 76.35 1014.7
30 19:53 N 11 0.00 NULL NULL 10 -3.3 39% 9 76.3 1013.8
30 18:53 N 13 0.00 NULL NULL 13.9 -5 27% 76.28 1013.8
30 17:53 N 19 0.00 NULL NULL 16.1 -6.7 20% 76.28 1013.5
30 16:53 N 20 0.00 NULL NULL 15.6 -7.2 17.8 12.8 20% 76.28 1013.7
30 15:53 N 15 0.00 NULL NULL 16.1 -6.1 21% 76.3 1013.9
30 14:53 NW 11 G 30 0.00 NULL NULL 17.8 -6.1 19% 76.35 1014.1
30 13:53 N 15 0.00 NULL NULL 17.2 -7.2 18% 76.38 1014.5
30 12:53 E 9 0.00 NULL NULL 15 -9.4 18% 76.4 1015.1
30 11:53 N 17 G 31 0.00 NULL NULL 15.6 -5 24% 76.45 1015.6
Date Time (pdt) Wind (kph) Vis. (km) Weather Sky Cond. Air Dwpt Max. Min. Relative Humidity Wind Chill (°C) Heat Index (°C) altimeter (cm) sea level (mb) 1 hr 3 hr 6 hr
6 hour
Temperature (ºC) Pressure Precipitation (cm)